Weather History for Main Pass 289C AWOS3 (Apache, LA

Change the Weather History Date:

Wednesday, January 15, 2014

  Actual Average Record
Temperature  
Mean Temperature 54 °F -  
Max Temperature 57 °F - - ()
Min Temperature 50 °F - - ()
Degree Days  
Heating Degree Days 12    
Growing Degree Days 4 (Base 50)    
Moisture  
Dew Point 34 °F    
Average Humidity 51    
Maximum Humidity 72    
Minimum Humidity 26    
Precipitation  
Precipitation 0.00 in - - ()
Sea Level Pressure  
Sea Level Pressure 30.13 in    
Wind  
Wind Speed 22 mph (North)    
Max Wind Speed 29 mph    
Max Gust Speed 34 mph    
Visibility 10 miles    
Events      
T = Trace of Precipitation, MM = Missing Value Source: NWS Daily Summary

Daily Weather History Graph

Daily Weather History Graph

Search for Another Location

Airport:

Trip Planner

Search our weather history database for the weather conditions in past years. The results will help you decide how hot, cold, wet, or windy it might be!

Date:

Astronomy

Jan. 15, 2014 Rise Set
Actual Time 6:48 AM CST 5:17 PM CST
Civil Twilight 6:23 AM CST 5:43 PM CST
Nautical Twilight 5:54 AM CST 6:12 PM CST
Astronomical Twilight 5:25 AM CST 6:41 PM CST
Moon 5:10 PM CST (1/15) 6:08 AM CST (1/15)
Length of Visible Light 11h 20m
Length of Day
10h 29m
Full, 100% of the Moon is Illuminated
Jan 15
Full
Jan 15
Full
Jan 23
Last Quarter
Jan 30
New
Feb 6
First Quarter

Hourly Weather History & Observations

Time (CST) Temp. Dew Point Humidity Pressure Visibility Wind Dir Wind Speed Gust Speed Precip Events Conditions
12:15 AM 57.2 °F 44.6 °F 63% 30.08 in 10.0 mi NNW 20.7 mph - N/A   Clear
12:35 AM 57.2 °F 41.0 °F 55% 30.08 in 10.0 mi NNW 21.9 mph - N/A   Clear
12:55 AM 57.2 °F 39.2 °F 51% 30.08 in 10.0 mi NNW 20.7 mph - N/A   Clear
1:15 AM 57.2 °F 39.2 °F 51% 30.07 in 10.0 mi NW 19.6 mph - N/A   Clear
1:35 AM 57.2 °F 39.2 °F 51% 30.08 in 10.0 mi NNW 21.9 mph - N/A   Clear
1:55 AM 57.2 °F 39.2 °F 51% 30.07 in 10.0 mi NNW 19.6 mph - N/A   Clear
2:15 AM 57.2 °F 41.0 °F 55% 30.07 in 10.0 mi NNW 18.4 mph - N/A   Clear
2:35 AM 57.2 °F 41.0 °F 55% 30.07 in 10.0 mi NNW 18.4 mph - N/A   Clear
2:55 AM 57.2 °F 41.0 °F 55% 30.07 in 10.0 mi NNW 18.4 mph - N/A   Clear
3:15 AM 55.4 °F 41.0 °F 58% 30.07 in 10.0 mi NNW 18.4 mph - N/A   Clear
3:35 AM 55.4 °F 39.2 °F 54% 30.07 in 10.0 mi NNW 19.6 mph - N/A   Clear
3:55 AM 55.4 °F 41.0 °F 58% 30.07 in 10.0 mi NNW 18.4 mph - N/A   Clear
4:15 AM 55.4 °F 42.8 °F 63% 30.07 in 10.0 mi NW 18.4 mph - N/A   Clear
4:35 AM 55.4 °F 41.0 °F 58% 30.07 in 10.0 mi NNW 23.0 mph - N/A   Clear
4:55 AM 55.4 °F 42.8 °F 63% 30.08 in 10.0 mi NNW 23.0 mph - N/A   Clear
5:15 AM 55.4 °F 42.8 °F 63% 30.09 in 10.0 mi NNW 21.9 mph - N/A   Clear
5:35 AM 55.4 °F 42.8 °F 63% 30.09 in 10.0 mi NNW 24.2 mph - N/A   Clear
5:55 AM 55.4 °F 42.8 °F 63% 30.10 in 10.0 mi North 18.4 mph 26.5 mph N/A   Clear
6:15 AM 55.4 °F 44.6 °F 67% 30.10 in 10.0 mi North 21.9 mph - N/A   Clear
6:35 AM 53.6 °F 44.6 °F 72% 30.11 in 10.0 mi North 19.6 mph - N/A   Clear
6:55 AM 53.6 °F 42.8 °F 67% 30.10 in 10.0 mi North 19.6 mph - N/A   Clear
7:15 AM 53.6 °F 42.8 °F 67% 30.11 in 10.0 mi North 20.7 mph - N/A   Clear
7:35 AM 53.6 °F 42.8 °F 67% 30.12 in - NNE 19.6 mph - N/A   Clear
7:55 AM 53.6 °F 41.0 °F 62% 30.13 in 10.0 mi ENE 28.8 mph - N/A   Clear
8:15 AM 53.6 °F 41.0 °F 62% 30.14 in 10.0 mi ENE 28.8 mph - N/A   Clear
8:35 AM 53.6 °F 41.0 °F 62% 30.14 in 10.0 mi ENE 27.6 mph - N/A   Clear
8:55 AM 51.8 °F 42.8 °F 71% 30.15 in 10.0 mi NE 25.3 mph - N/A   Partly Cloudy
9:15 AM 51.8 °F 41.0 °F 67% 30.16 in 10.0 mi NE 27.6 mph - N/A   Partly Cloudy
9:35 AM 51.8 °F 41.0 °F 67% 30.17 in 10.0 mi NE 27.6 mph - N/A   Mostly Cloudy
9:55 AM 51.8 °F 41.0 °F 67% 30.17 in 10.0 mi ENE 24.2 mph 31.1 mph N/A   Mostly Cloudy
10:15 AM 51.8 °F 39.2 °F 62% 30.17 in 10.0 mi ENE 25.3 mph - N/A   Partly Cloudy
10:35 AM 51.8 °F 39.2 °F 62% 30.16 in 10.0 mi ENE 25.3 mph - N/A   Scattered Clouds
10:55 AM 51.8 °F 39.2 °F 62% 30.15 in 10.0 mi NE 25.3 mph - N/A   Mostly Cloudy
11:15 AM 51.8 °F 39.2 °F 62% 30.15 in 10.0 mi NE 23.0 mph - N/A   Scattered Clouds
11:35 AM 51.8 °F 39.2 °F 62% 30.14 in 10.0 mi NE 20.7 mph - N/A   Partly Cloudy
11:55 AM 51.8 °F 39.2 °F 62% 30.14 in 10.0 mi NNE 19.6 mph 26.5 mph N/A   Partly Cloudy
12:15 PM 50.0 °F 39.2 °F 66% 30.13 in 10.0 mi NNE 23.0 mph - N/A   Scattered Clouds
12:35 PM 50.0 °F 37.4 °F 62% 30.12 in 10.0 mi NNE 24.2 mph - N/A   Scattered Clouds
12:55 PM 50.0 °F 37.4 °F 62% 30.12 in 10.0 mi NNE 23.0 mph - N/A   Mostly Cloudy
1:15 PM 50.0 °F 33.8 °F 54% 30.12 in 10.0 mi NNE 23.0 mph 31.1 mph N/A   Scattered Clouds
1:35 PM 50.0 °F 32.0 °F 50% 30.11 in 10.0 mi NNE 21.9 mph - N/A   Clear
1:55 PM 50.0 °F 32.0 °F 50% 30.11 in 10.0 mi NNE 23.0 mph 32.2 mph N/A   Clear
2:15 PM 50.0 °F 33.8 °F 54% 30.11 in 10.0 mi NNE 19.6 mph 28.8 mph N/A   Clear
2:35 PM 50.0 °F 33.8 °F 54% 30.10 in 10.0 mi North 25.3 mph - N/A   Clear
2:55 PM 50.0 °F 32.0 °F 50% 30.11 in 10.0 mi NNE 19.6 mph - N/A   Clear
3:15 PM 50.0 °F 30.2 °F 47% 30.11 in 10.0 mi NNE 23.0 mph 29.9 mph N/A   Clear
3:35 PM 51.8 °F 30.2 °F 44% 30.12 in 10.0 mi North 23.0 mph 31.1 mph N/A   Clear
3:55 PM 51.8 °F 28.4 °F 41% 30.12 in 10.0 mi North 23.0 mph 29.9 mph N/A   Clear
4:15 PM 51.8 °F 26.6 °F 38% 30.12 in 10.0 mi NNE 23.0 mph 31.1 mph N/A   Clear
4:35 PM 51.8 °F 24.8 °F 35% 30.12 in 10.0 mi North 25.3 mph 32.2 mph N/A   Clear
4:55 PM 51.8 °F 21.2 °F 30% 30.12 in 10.0 mi North 26.5 mph - N/A   Clear
5:15 PM 51.8 °F 23.0 °F 33% 30.13 in 10.0 mi North 26.5 mph - N/A   Clear
5:35 PM 51.8 °F 23.0 °F 33% 30.13 in 10.0 mi North 24.2 mph 32.2 mph N/A   Clear
5:55 PM 51.8 °F 19.4 °F 28% 30.14 in 10.0 mi NNE 26.5 mph - N/A   Clear
6:15 PM 51.8 °F 21.2 °F 30% 30.14 in 10.0 mi North 24.2 mph - N/A   Clear
6:35 PM 51.8 °F 23.0 °F 33% 30.15 in 10.0 mi North 23.0 mph 29.9 mph N/A   Clear
6:55 PM 51.8 °F 26.6 °F 38% 30.14 in 10.0 mi North 23.0 mph 34.5 mph N/A   Clear
7:15 PM 51.8 °F 21.2 °F 30% 30.15 in 10.0 mi North 20.7 mph 28.8 mph N/A   Clear
7:35 PM 51.8 °F 24.8 °F 35% 30.16 in 10.0 mi NNE 20.7 mph - N/A   Clear
7:55 PM 51.8 °F 24.8 °F 35% 30.16 in 10.0 mi North 23.0 mph 28.8 mph N/A   Clear
8:15 PM 51.8 °F 23.0 °F 33% 30.17 in 10.0 mi North 18.4 mph 27.6 mph N/A   Clear
8:35 PM 51.8 °F 23.0 °F 33% 30.17 in 10.0 mi North 21.9 mph 31.1 mph N/A   Clear
8:55 PM 51.8 °F 24.8 °F 35% 30.18 in 10.0 mi North 20.7 mph 31.1 mph N/A   Clear
9:15 PM 51.8 °F 24.8 °F 35% 30.18 in 10.0 mi NNE 21.9 mph 32.2 mph N/A   Clear
9:35 PM 51.8 °F 17.6 °F 26% 30.19 in 10.0 mi North 23.0 mph 33.4 mph N/A   Clear
9:55 PM 51.8 °F 19.4 °F 28% 30.19 in 10.0 mi NNE 26.5 mph 33.4 mph N/A   Clear
10:15 PM 51.8 °F 24.8 °F 35% 30.18 in 10.0 mi North 25.3 mph - N/A   Clear
10:35 PM 51.8 °F 23.0 °F 33% 30.19 in 10.0 mi North 23.0 mph 29.9 mph N/A   Clear
10:55 PM 50.0 °F 23.0 °F 35% 30.18 in 10.0 mi North 21.9 mph 29.9 mph N/A   Clear
11:15 PM 50.0 °F 24.8 °F 37% 30.18 in 10.0 mi North 19.6 mph 26.5 mph N/A   Clear
11:35 PM 50.0 °F 24.8 °F 37% 30.18 in 10.0 mi NNE 19.6 mph 28.8 mph N/A   Clear
11:55 PM 50.0 °F 24.8 °F 37% 30.18 in - North 18.4 mph 25.3 mph N/A   Clear